This demonstration page uses our WeatherBlox Daily Observations layout. Learn more.

Hourly Observations for August 12, 2018

Temp ( °F °C ) Dew Point ( °F °C ) Humidity (%) Winds ( mph kmh ) Pressure ( in mb ) Visibility ( mi km ) Precip ( " mm )
12:15 am 00:15 Clear 71 21.7 64 17.8 79 79 SSW 6 9 30 1016 10 16.09344 0 0
12:35 am 00:35 Clear 70 21.2 64 17.5 80 80 Calm 30 1016 10 16.09344 0 0
12:55 am 00:55 Clear 67 19.6 64 17.5 88 88 Calm 30.06 1018 10 16.09344 0 0
1:15 am 01:15 Clear 66 19.1 63 17.2 89 89 SSW 3 6 30.06 1018 10 16.09344 0 0
1:35 am 01:35 Clear 69 20.5 64 17.5 83 83 SSW 3 6 30 1016 10 16.09344 0 0
1:55 am 01:55 Clear 69 20.8 63 17.2 80 80 SW 5 7 30 1016 10 16.09344 0 0
2:15 am 02:15 Clear 68 20 63 17.2 84 84 Calm 30.03 1017 10 16.09344 0 0
2:35 am 02:35 Clear 69 20.3 63 17.1 82 82 SSW 3 6 30.03 1017 10 16.09344 0 0
2:55 am 02:55 Clear 66 18.8 62 16.7 88 88 Calm 30.03 1017 10 16.09344 0 0
3:15 am 03:15 Clear 63 17 61 16.3 96 96 SSE 3 6 30.03 1017 10 16.09344 0 0
3:35 am 03:35 Clear 63 17.1 61 16 93 93 SSE 5 7 30.03 1017 10 16.09344 0 0
3:55 am 03:55 Clear 63 17.3 62 16.7 96 96 S 6 9 30.03 1017 10 16.09344 0 0
4:15 am 04:15 Clear 64 17.6 62 16.7 95 95 S 6 9 30.06 1018 10 16.09344 0 0
4:35 am 04:35 Clear 64 18 62 16.8 93 93 S 6 9 30.06 1018 10 16.09344 0 0
4:55 am 04:55 Clear 64 18 63 17 94 94 S 5 7 30.03 1017 10 16.09344 0 0
5:15 am 05:15 Clear 63 17.1 62 16.6 97 97 Calm 30.03 1017 7 11.265408 0 0
5:35 am 05:35 Clear 63 17.4 63 17 98 98 SSW 3 6 30.03 1017 10 16.09344 0 0
5:55 am 05:55 Clear 62 16.6 60 15.7 94 94 Calm 30.06 1018 10 16.09344 0 0
6:15 am 06:15 Clear 62 16.5 61 15.9 96 96 Calm 30.06 1018 10 16.09344 0 0
6:35 am 06:35 Clear 63 17 61 16.3 96 96 Calm 30.09 1019 10 16.09344 0 0
6:55 am 06:55 Sunny 60 15.3 59 14.9 97 97 ESE 5 7 30.09 1019 7 11.265408 0 0
7:15 am 07:15 Sunny with Mist and Fog 60 15.6 60 15.6 100 100 SE 5 7 30.09 1019 5 8.04672 0 0
7:35 am 07:35 Sunny with Mist and Fog 61 16.3 61 16.2 99 99 SE 3 6 30.09 1019 5 8.04672 0 0
7:55 am 07:55 Sunny 62 16.9 62 16.6 98 98 Calm 30.09 1019 7 11.265408 0 0
8:15 am 08:15 Sunny 64 17.9 63 17.1 95 95 Calm 30.06 1018 7 11.265408 0 0
8:35 am 08:35 Sunny 66 18.7 64 17.8 95 95 Calm 30.06 1018 7 11.265408 0 0
8:55 am 08:55 Sunny 67 19.7 65 18.1 91 91 Calm 30.06 1018 7 11.265408 0 0
9:15 am 09:15 Sunny 69 20.5 65 18.3 87 87 S 3 6 30.06 1018 10 16.09344 0 0
9:35 am 09:35 Sunny 71 21.5 66 18.7 84 84 S 5 7 30.03 1017 10 16.09344 0 0
9:55 am 09:55 Sunny 72 22.3 64 17.9 76 76 S 5 7 30.03 1017 10 16.09344 0 0
10:15 am 10:15 Sunny 73 23 64 17.9 73 73 SSE 6 9 30.03 1017 10 16.09344 0 0
10:35 am 10:35 Sunny 75 23.7 65 18.6 73 73 SSE 5 7 30.03 1017 10 16.09344 0 0
10:55 am 10:55 Sunny 76 24.5 65 18.6 70 70 S 5 7 30 1016 10 16.09344 0 0
11:15 am 11:15 Sunny 77 25.1 66 19 69 69 SSE 3 6 30 1016 10 16.09344 0 0
11:35 am 11:35 Sunny 79 25.9 66 19 66 66 Calm 30 1016 10 16.09344 0 0
11:55 am 11:55 Sunny 80 26.6 65 18.1 60 60 SSE 6 9 30 1016 10 16.09344 0 0
12:15 pm 12:15 Sunny 80 26.7 65 18.2 60 60 SSE 7 11 30 1016 10 16.09344 0 0
12:35 pm 12:35 Sunny 81 27.1 65 18.2 58 58 SSE 8 13 30 1016 10 16.09344 0 0
12:55 pm 12:55 Sunny 81 27.3 64 17.5 55 55 SSE 7 11 30 1016 10 16.09344 0 0
1:15 pm 13:15 Sunny 82 27.8 62 16.9 52 52 S 7 11 30 1016 10 16.09344 0 0
1:35 pm 13:35 Sunny 82 28 64 17.5 53 53 S 7 11 30 1016 10 16.09344 0 0
1:55 pm 13:55 Sunny 83 28.1 65 18.3 55 55 SE 8 13 29.97 1015 10 16.09344 0 0
2:15 pm 14:15 Sunny 83 28.4 63 17.2 51 51 SSE 7 11 29.97 1015 10 16.09344 0 0
2:35 pm 14:35 Sunny 83 28.3 64 17.6 52 52 SSE 8 13 29.97 1015 10 16.09344 0 0
2:55 pm 14:55 Sunny 84 28.7 64 17.8 52 52 SE 6 9 29.94 1014 10 16.09344 0 0
3:15 pm 15:15 Sunny 84 28.7 65 18.2 53 53 ESE 9 15 29.94 1014 10 16.09344 0 0
3:35 pm 15:35 Sunny 84 28.7 64 17.7 51 51 S 7 11 29.94 1014 10 16.09344 0 0
3:55 pm 15:55 Partly Cloudy 84 29 62 16.9 48 48 SSE 6 9 29.94 1014 10 16.09344 0 0
4:15 pm 16:15 Partly Cloudy 84 29.1 64 17.8 51 51 SSE 8 13 29.94 1014 10 16.09344 0 0
4:35 pm 16:35 Sunny 84 28.7 64 18 52 52 SSE 5 7 29.94 1014 10 16.09344 0 0
4:55 pm 16:55 Partly Cloudy 84 29 63 17.2 49 49 SSE 5 7 29.94 1014 10 16.09344 0 0
5:15 pm 17:15 Mostly Cloudy 85 29.2 65 18.6 53 53 SE 6 9 29.91 1013 10 16.09344 0 0
5:35 pm 17:35 Partly Cloudy 84 29 63 17.2 49 49 SSE 7 11 29.91 1013 10 16.09344 0 0
5:55 pm 17:55 Sunny 85 29.3 62 16.4 46 46 S 5 7 29.91 1013 10 16.09344 0 0
6:15 pm 18:15 Sunny 84 28.9 63 17.2 49 49 S 6 9 29.91 1013 10 16.09344 0 0
6:35 pm 18:35 Mostly Cloudy 84 28.7 63 17.2 50 50 S 6 9 29.91 1013 10 16.09344 0 0
6:55 pm 18:55 Partly Cloudy 83 28.3 64 17.9 53 53 SSE 5 7 29.91 1013 10 16.09344 0 0
7:15 pm 19:15 Sunny 82 28 66 19.1 58 58 SSE 5 7 29.91 1013 10 16.09344 0 0
7:35 pm 19:35 Partly Cloudy 81 27.2 68 20 65 65 Calm 29.88 1012 10 16.09344 0 0
7:55 pm 19:55 Sunny 79 26 69 20.8 73 73 ESE 3 6 29.91 1013 10 16.09344 0 0
8:15 pm 20:15 Partly Cloudy 79 25.9 68 19.9 70 70 Calm 29.94 1014 10 16.09344 0 0
8:35 pm 20:35 Mostly Cloudy 76 24.6 68 20.1 76 76 SE 6 9 29.94 1014 10 16.09344 0 0
8:55 pm 20:55 Partly Cloudy 74 23.5 68 20 81 81 SE 5 7 29.97 1015 10 16.09344 0 0
9:15 pm 21:15 Clear 73 22.6 68 20 85 85 Calm 29.97 1015 10 16.09344 0 0
9:35 pm 21:35 Clear 72 22.3 66 19.1 82 82 SE 5 7 29.97 1015 10 16.09344 0 0
9:55 pm 21:55 Clear 71 21.9 65 18.3 80 80 SE 8 13 29.97 1015 10 16.09344 0 0
10:15 pm 22:15 Clear 70 21 63 17.1 79 79 SE 3 6 29.97 1015 10 16.09344 0 0
10:35 pm 22:35 Partly Cloudy 68 20.2 63 17.2 83 83 Calm 30.03 1017 10 16.09344 0 0
10:55 pm 22:55 Clear 69 20.5 62 16.8 79 79 SSE 3 6 29.97 1015 10 16.09344 0 0
11:15 pm 23:15 Clear 68 20.1 60 15.8 76 76 SSE 6 9 29.97 1015 10 16.09344 0 0
11:35 pm 23:35 Clear 68 20.1 61 16 77 77 S 3 6 29.97 1015 10 16.09344 0 0
11:55 pm 23:55 Clear 66 19 61 16 83 83 SSE 6 9 30 1016 10 16.09344 0 0

Powered by AerisWeather